Location: Carrières
(48.9495°N, 2.0407°E)
Time: 07:07:00
(UTC+00:00)

Transit 2A Rocket - Pass Details

Date: 22 April 2024
Orbit: 591 x 895 km, 66.7° (Epoch: 12 May)

Event Time Altitude Azimuth Distance (km) Brightness Sun altitude
Rises 13:34:04 0° 274° (W) 2,981 8.4 47.7°
Reaches altitude 10° 13:37:05 10° 295° (WNW) 2,128 7.6 47.4°
Maximum altitude 13:40:12 17° 335° (NNW) 1,776 6.9 47.0°
Drops below altitude 10° 13:43:29 10° 15° (NNE) 2,262 7.2 46.7°
Sets 13:46:51 0° 36° (NE) 3,260 7.8 46.3°
